Location: Flotzheim
(48.8375°N, 10.8136°E)
Time: 04:28:08
(UTC+00:00)

COSMOS 2455 - Pass Details

Date: 23 January 2021
Orbit: 901 x 908 km, 67.1° (Epoch: 26 February)

Event Time Altitude Azimuth Distance (km) Brightness Sun altitude
Rises 17:53:34 0° 233° (SW) 3,525 7.0 -18.4°
Reaches altitude 10° 17:56:10 10° 239° (WSW) 2,588 6.2 -18.8°
Maximum altitude 18:01:58 48° 314° (NW) 1,173 3.7 -19.8°
Enters shadow 18:06:54 14° 25° (NNE) 2,294 4.7 -20.6°
